[[{"header":{"parameterUnit":"m.s-1","parameterCategory":1,"la1":30.2991,"la2":30.254,"lo1":-89.0895,"lo2":-89.0444,"dy":0.0017,"dx":0.0017,"nx":28,"ny":28,"refTime":"2025-03-23T21:00:00:Z","depth":0,"parameterNumber":2,"parameterNumberName":"U-component_of_WINDS"},"data":[0,0,0,0,0,0,0,0,0,0,0,0,0,0,0,0,0,0,0,0,0,0,0,0,0,0,0,0,0,0,0,0,0,0,0,0,0,0,0,0,0,0,0,0,0,0,0,0,0,0,0,0,0,0,0,0,0,0,0.684,0.6841,0,0.6877,0.6877,0.6877,0.694,0.6942,0.6943,0.6944,0.6977,0.6977,0.6976,0,0,0,0,0,0,0,0,0,0,0,0,0,0.6822,0.6822,0.684,0.6841,0.6841,0.6877,0.6877,0.6878,0.694,0.6942,0.6943,0.6945,0.6977,0.6977,0.6976,0,0,0,0,0,0,0,0,0,0,0,0,0,0.6841,0.6822,0.684,0.6877,0.6881,0.6876,0.6877,0.6878,0.694,0.6942,0.6944,0.6945,0.6977,0.6977,0.6976,0.6938,0,0,0.6975,0.6975,0,0,0,0,0,0,0,0,0.684,0.6842,0.6871,0.6874,0.6879,0.6906,0.6883,0.6898,0.6939,0.6917,0.6944,0.6946,0.6952,0.6953,0.6956,0.694,0.6941,0.6975,0.6975,0.6975,0.6975,0,0,0,0,0,0,0,0.6839,0.6841,0.6855,0.6871,0.6876,0.6891,0.6895,0.6886,0.6924,0.6919,0.6924,0.6928,0.6954,0.6956,0.6957,0.6941,0.6975,0.6975,0.6975,0.6974,0.6897,0.6895,0,0,0,0,0,0,0.6833,0.6839,0.6854,0.6856,0.6864,0.6889,0.6895,0.6895,0.6924,0.693,0.6926,0.693,0.6956,0.6958,0.6959,0.6917,0.6975,0.6974,0.6974,0.6898,0.6896,0.6894,0,0,0,0,0,0,0.6832,0.6833,0.6852,0.6849,0.6852,0.6888,0.6888,0.6895,0.6898,0.6929,0.6936,0.6922,0.6958,0.6959,0.6943,0.6919,0.6974,0.6974,0.6901,0.6898,0.6895,0.6833,0,0,0,0,0,0,0.6831,0.6833,0.6819,0.6848,0.6852,0.6837,0.6886,0.6894,0.6897,0.6903,0.6927,0.6933,0.6959,0.6944,0.6943,0.692,0.6974,0.6903,0.6899,0.6896,0.6837,0.6828,0.682,0,0,0,0,0,0.683,0.6799,0.6818,0.682,0.6836,0.6835,0.6838,0.687,0.6895,0.6882,0.6902,0.6932,0.6921,0.6941,0.6941,0.6917,0.6905,0.69,0.6896,0.6841,0.683,0.6821,0,0,0,0,0,0,0.6765,0.6804,0.6825,0.6803,0.6815,0.6846,0.683,0.6857,0.6862,0.6867,0.6906,0.691,0.689,0.6902,0.6923,0.6882,0.6918,0.6913,0.6876,0.6866,0.6857,0.6855,0.6973,0,0,0,0,0,0.6748,0.6745,0.6779,0.6755,0.6761,0.6794,0.6795,0.6819,0.6833,0.6838,0.6857,0.6869,0.6869,0.6868,0.6869,0.6839,0.6845,0.6822,0.6814,0.6807,0.6803,0.6789,0.678,0.688,0.688,0.6881,0,0,0.6713,0.6734,0.6729,0.6743,0.6755,0.6751,0.6798,0.6791,0.6788,0.6837,0.6824,0.6838,0.6853,0.6831,0.6822,0.684,0.6776,0.6802,0.6796,0.6796,0.6784,0.6774,0.6766,0.6878,0.6878,0.6879,0,0,0.6647,0.6662,0.6645,0.6657,0.6677,0.6699,0.6695,0.6722,0.6734,0.6721,0.6758,0.6754,0.6752,0.6763,0.6767,0.6705,0.6733,0.6704,0.6661,0.6647,0.6639,0.6633,0.6612,0.6604,0.67,0.67,0.67,0,0.66,0.6596,0.6632,0.6624,0.6629,0.6674,0.6657,0.6666,0.6684,0.6686,0.6707,0.6707,0.672,0.6701,0.6686,0.6688,0.6684,0.6703,0.6638,0.6631,0.6626,0.6606,0.6598,0.6696,0.6697,0.6697,0.6698,0,0.6539,0.6535,0.6519,0.6538,0.654,0.6527,0.6561,0.6559,0.6582,0.6602,0.6589,0.6607,0.6613,0.661,0.6632,0.6594,0.6605,0.6631,0.6668,0.6612,0.6594,0.6587,0.6691,0.6693,0.6694,0.6695,0,0,0.6433,0.6472,0.6466,0.6475,0.65,0.6498,0.6486,0.6494,0.6492,0.6503,0.6494,0.6492,0.6517,0.6522,0.6545,0.6533,0.6484,0.6561,0.6562,0.6547,0.6445,0.6426,0.6417,0.6503,0.6501,0.65,0.6444,0,0.6373,0.6358,0.6391,0.6367,0.6365,0.6408,0.6398,0.6411,0.643,0.6429,0.6449,0.6447,0.6479,0.6483,0.6472,0.6492,0.6465,0.6497,0.6495,0.6495,0.6492,0.6408,0.6388,0.6334,0.6437,0.6436,0.6435,0,0.6302,0.6311,0.6288,0.6315,0.6315,0.6306,0.6317,0.6316,0.6332,0.6346,0.6352,0.638,0.637,0.6405,0.6392,0.6413,0.6414,0.6424,0.6422,0.6424,0.6462,0.6409,0.6317,0.631,0.6424,0.6425,0.6426,0,0.6229,0.6235,0.6223,0.6229,0.626,0.6253,0.6265,0.6283,0.6286,0.6294,0.6296,0.6302,0.6306,0.631,0.6338,0.6361,0.6322,0.6359,0.6334,0.6333,0.6325,0.6325,0.6234,0.6323,0.6323,0.6323,0.6323,0,0.616,0.6144,0.6191,0.6183,0.6167,0.6203,0.6186,0.6202,0.6218,0.6214,0.625,0.6245,0.6283,0.6281,0.6303,0.629,0.6291,0.6302,0.6308,0.6299,0.6298,0.6301,0.6306,0.6321,0.6321,0.6322,0.6322,0,0.6076,0.6106,0.6096,0.6127,0.6134,0.6121,0.6147,0.614,0.6161,0.6155,0.6156,0.6188,0.6188,0.6217,0.6223,0.6238,0.6215,0.6228,0.621,0.6215,0.6189,0.6191,0.6097,0.6087,0.6181,0.6181,0.618,0,0.603,0.602,0.605,0.6051,0.6062,0.6062,0.6066,0.6101,0.6103,0.6121,0.6112,0.6116,0.6121,0.612,0.6143,0.6148,0.6161,0.6128,0.6162,0.6154,0.6163,0.6163,0.6163,0.6121,0.612,0.6119,0.6118,0,0.5947,0.5963,0.5968,0.5978,0.5981,0.599,0.6002,0.6,0.6038,0.6038,0.604,0.6044,0.6051,0.6055,0.6064,0.6076,0.6103,0.6107,0.6102,0.6094,0.6085,0.609,0.6192,0.6109,0.611,0.6111,0.6111,0.6112,0.5882,0.5875,0.5896,0.59,0.5913,0.5922,0.5919,0.5939,0.5942,0.5952,0.5972,0.5971,0.5987,0.6003,0.6012,0.6011,0.6028,0.602,0.6018,0.6016,0.6012,0.6084,0.6013,0.6013,0.6013,0.6014,0.6014,0,0.5802,0.5818,0.5821,0.5837,0.584,0.5867,0.588,0.5881,0.588,0.5894,0.5899,0.5901,0.5905,0.5928,0.5934,0.5929,0.5942,0.593,0.5931,0.5933,0.5996,0.6,0.5919,0.5919,0.5919,0.5919,0.5919,0.5919,0.5761,0.5751,0.5769,0.5766,0.5781,0.5782,0.5788,0.5797,0.5808,0.581,0.5814,0.583,0.5847,0.5855,0.5859,0.5866,0.5867,0.5851,0.5862,0.592,0.5929,0.5938,0.5942,0.585,0.585,0.58,0.5799,0.5799]},{"header":{"parameterUnit":"m.s-1","parameterCategory":1,"la1":30.2991,"la2":30.254,"lo1":-89.0895,"lo2":-89.0444,"dy":0.0017,"dx":0.0017,"nx":28,"ny":28,"refTime":"2025-03-23T21:00:00:Z","depth":0,"parameterNumber":3,"parameterNumberName":"V-component_of_WINDS"},"data":[0,0,0,0,0,0,0,0,0,0,0,0,0,0,0,0,0,0,0,0,0,0,0,0,0,0,0,0,0,0,0,0,0,0,0,0,0,0,0,0,0,0,0,0,0,0,0,0,0,0,0,0,0,0,0,0,0,0,-2.006,-2.0058,0,-1.9864,-1.9861,-1.9859,-1.9801,-1.9802,-1.9803,-1.9804,-1.9591,-1.9585,-1.9578,0,0,0,0,0,0,0,0,0,0,0,0,0,-2.0376,-2.0371,-2.006,-2.0058,-2.0055,-1.9864,-1.9861,-1.9859,-1.9801,-1.9802,-1.9803,-1.9804,-1.9594,-1.9586,-1.9578,0,0,0,0,0,0,0,0,0,0,0,0,0,-2.0215,-2.0369,-2.0061,-2.0004,-1.9997,-1.9865,-1.9861,-1.9858,-1.98,-1.9802,-1.9803,-1.9805,-1.9596,-1.9587,-1.9577,-1.9484,0,0,-1.9546,-1.9542,0,0,0,0,0,0,0,0,-2.0224,-2.0203,-2.0014,-2.0007,-1.9999,-1.9859,-1.9895,-1.9732,-1.98,-1.9874,-1.9804,-1.9806,-1.9678,-1.9662,-1.9621,-1.9474,-1.9465,-1.9545,-1.9539,-1.9535,-1.9532,0,0,0,0,0,0,0,-2.0236,-2.0212,-1.9982,-2.0012,-2.0002,-1.9985,-1.9964,-1.9864,-1.9769,-1.9868,-1.9863,-1.9842,-1.9674,-1.9631,-1.9616,-1.9462,-1.9546,-1.9537,-1.9531,-1.9527,-1.9228,-1.9226,0,0,0,0,0,0,-2.0258,-2.0221,-1.9988,-1.9976,-2.0118,-1.9978,-1.9954,-1.9902,-1.9771,-1.9752,-1.984,-1.984,-1.9647,-1.9627,-1.9608,-1.9489,-1.9535,-1.9526,-1.952,-1.923,-1.9227,-1.9225,0,0,0,0,0,0,-2.0265,-2.0238,-1.9996,-2.0097,-2.0066,-1.9971,-1.9912,-1.9897,-1.9854,-1.975,-1.9732,-1.9814,-1.9647,-1.9622,-1.9516,-1.9481,-1.9521,-1.9512,-1.9232,-1.9229,-1.9226,-1.9252,0,0,0,0,0,0,-2.0274,-2.0241,-2.0206,-2.0097,-2.006,-1.991,-1.991,-1.9892,-1.9838,-1.9835,-1.972,-1.9702,-1.9647,-1.9531,-1.9506,-1.9468,-1.9505,-1.9235,-1.9231,-1.9227,-1.9254,-1.9251,-1.9248,0,0,0,0,0,-2.0286,-2.0219,-2.0205,-2.0177,-2.0016,-1.9908,-1.9887,-1.9827,-1.9836,-1.9798,-1.9732,-1.9706,-1.949,-1.9521,-1.9492,-1.9451,-1.9236,-1.9232,-1.9228,-1.9256,-1.9251,-1.9248,0,0,0,0,0,0,-2.0321,-2.0203,-2.0186,-2.0083,-2.0007,-1.9899,-1.985,-1.9825,-1.9741,-1.9742,-1.9668,-1.9643,-1.9542,-1.9486,-1.9522,-1.9354,-1.9362,-1.9352,-1.9393,-1.9389,-1.9386,-1.9399,-1.9496,0,0,0,0,0,-2.0318,-2.0244,-2.0143,-2.0062,-2.0025,-1.9945,-1.9895,-1.9857,-1.9773,-1.9739,-1.9665,-1.9582,-1.9496,-1.9439,-1.9354,-1.9248,-1.922,-1.9205,-1.9202,-1.92,-1.919,-1.9129,-1.912,-1.9211,-1.9211,-1.9211,0,0,-2.0308,-2.0235,-2.0191,-2.0067,-2.0003,-1.9925,-1.9917,-1.9834,-1.9775,-1.9725,-1.9621,-1.9565,-1.9467,-1.936,-1.9309,-1.931,-1.916,-1.9194,-1.9194,-1.9184,-1.9123,-1.9115,-1.9107,-1.9208,-1.9208,-1.9209,0,0,-2.025,-2.0189,-2.0113,-2.0051,-1.9957,-1.9905,-1.9887,-1.9784,-1.9745,-1.9641,-1.9603,-1.9529,-1.9382,-1.9314,-1.926,-1.9181,-1.9153,-1.9155,-1.9137,-1.9078,-1.907,-1.9064,-1.9033,-1.9023,-1.9147,-1.9147,-1.9147,0,-2.0248,-2.0132,-2.0077,-1.9997,-1.9943,-1.99,-1.9822,-1.9763,-1.9644,-1.9606,-1.9611,-1.9427,-1.9358,-1.9234,-1.9215,-1.9174,-1.9149,-1.9166,-1.9077,-1.9069,-1.9062,-1.9032,-1.9021,-1.9148,-1.9148,-1.9148,-1.9148,0,-2.0134,-2.0054,-2.0005,-1.9896,-1.9836,-1.9757,-1.9688,-1.9634,-1.9602,-1.9548,-1.9442,-1.9359,-1.9256,-1.9225,-1.9191,-1.9096,-1.91,-1.9092,-1.9098,-1.9055,-1.9025,-1.9014,-1.9149,-1.9149,-1.9148,-1.9148,0,0,-2.0087,-1.9953,-1.9935,-1.9885,-1.978,-1.9715,-1.9635,-1.9539,-1.9493,-1.9413,-1.9341,-1.922,-1.9213,-1.9152,-1.911,-1.9059,-1.8999,-1.9057,-1.9053,-1.9046,-1.8887,-1.8892,-1.888,-1.8983,-1.898,-1.8978,-1.8895,0,-2.0013,-1.9871,-1.9821,-1.9702,-1.9626,-1.9587,-1.9516,-1.9443,-1.9392,-1.9318,-1.926,-1.9175,-1.9173,-1.9136,-1.9084,-1.9018,-1.8966,-1.9024,-1.8911,-1.8907,-1.8933,-1.8864,-1.8868,-1.8793,-1.8883,-1.8881,-1.888,0,-1.9907,-1.9831,-1.9706,-1.9612,-1.9578,-1.9516,-1.9424,-1.9356,-1.9271,-1.9237,-1.9172,-1.9135,-1.9046,-1.9062,-1.8937,-1.8978,-1.8929,-1.889,-1.8886,-1.8869,-1.8888,-1.8842,-1.8768,-1.8755,-1.8861,-1.8863,-1.8864,0,-1.9883,-1.9749,-1.9657,-1.9616,-1.9504,-1.9461,-1.9412,-1.9329,-1.9275,-1.9194,-1.9158,-1.9067,-1.9016,-1.8945,-1.8883,-1.8901,-1.8763,-1.8774,-1.8729,-1.8731,-1.8698,-1.87,-1.8611,-1.8674,-1.8674,-1.8674,-1.8674,0,-1.9803,-1.9727,-1.9644,-1.9587,-1.9501,-1.9444,-1.9359,-1.9307,-1.9234,-1.9164,-1.9125,-1.9059,-1.8984,-1.8907,-1.8859,-1.8762,-1.8739,-1.8707,-1.8694,-1.8708,-1.8712,-1.8672,-1.8674,-1.8671,-1.8672,-1.8672,-1.8673,0,-1.9758,-1.9701,-1.9597,-1.9503,-1.9477,-1.9417,-1.9334,-1.9275,-1.9225,-1.9137,-1.9113,-1.9032,-1.894,-1.8874,-1.8754,-1.8722,-1.8617,-1.8606,-1.8646,-1.8639,-1.8597,-1.86,-1.8475,-1.8455,-1.8535,-1.8535,-1.8534,0,-1.971,-1.9651,-1.9552,-1.9504,-1.9457,-1.938,-1.9326,-1.9268,-1.9212,-1.9114,-1.9067,-1.8974,-1.8896,-1.8751,-1.8679,-1.8588,-1.8572,-1.8535,-1.8557,-1.8573,-1.8567,-1.857,-1.8562,-1.853,-1.8529,-1.8529,-1.8528,0,-1.9628,-1.9604,-1.9529,-1.9445,-1.9383,-1.9313,-1.9242,-1.9205,-1.9134,-1.9073,-1.8982,-1.8922,-1.8804,-1.871,-1.8613,-1.8558,-1.8529,-1.8523,-1.8507,-1.8518,-1.8543,-1.8526,-1.8633,-1.8524,-1.8525,-1.8525,-1.8525,-1.8526,-1.9577,-1.9524,-1.9446,-1.9365,-1.9307,-1.9242,-1.9183,-1.9128,-1.9052,-1.8953,-1.8923,-1.8828,-1.8745,-1.8612,-1.8557,-1.8479,-1.848,-1.8457,-1.8451,-1.8445,-1.8445,-1.856,-1.8461,-1.8461,-1.8461,-1.8461,-1.8461,0,-1.9491,-1.9441,-1.9367,-1.9272,-1.9207,-1.9194,-1.9115,-1.9061,-1.8979,-1.8906,-1.8832,-1.8727,-1.8637,-1.8561,-1.8467,-1.842,-1.8404,-1.8397,-1.8397,-1.8385,-1.8451,-1.8472,-1.8411,-1.8411,-1.8411,-1.8411,-1.8411,-1.8411,-1.9438,-1.9347,-1.9313,-1.9192,-1.9141,-1.9051,-1.9007,-1.8946,-1.8888,-1.8774,-1.8701,-1.8654,-1.8579,-1.848,-1.8397,-1.8376,-1.8342,-1.8337,-1.8312,-1.8374,-1.838,-1.8386,-1.8405,-1.8331,-1.8331,-1.8252,-1.8251,-1.8251]}]]